Location: Newark
(46.7000°N, 60.6000°W)
Time: 08:14:19
(UTC+00:00)

Vanguard 3 - Pass Details

Date: 01 November 2020
Orbit: 508 x 3262 km, 33.3° (Epoch: 29 November)

Event Time Altitude Azimuth Distance (km) Brightness Sun altitude
Rises 12:43:28 0° 270° (W) 6,904 11.5 16.2°
Reaches altitude 10° 12:48:10 10° 265° (W) 6,062 11.3 16.8°
Maximum altitude 13:06:02 45° 202° (SSW) 3,915 11.1 18.9°
Drops below altitude 10° 13:21:21 10° 138° (SE) 5,231 13.5 20.6°
Sets 13:25:04 0° 132° (SE) 5,924 13.0 20.9°
